QPF
0.00 0.00 0.00 0.00 0.00 0.00 0.00 0.00 0.00 0.00 0.00 0.00 0.00 0.00 0.00 0.00 0.00 0.00 0.00 0.00 0.00 0.00 0.00 0.00 0.00 0.00 0.00 0.00 0.00 0.00 0.00 0.00 0.00 0.00 0.00 0.00 0.00 0.00 0.00 0.00 0.00 0.00 0.00 0.00 0.00 0.00 0.00
0.00 0.00 0.00 0.00 0.00 0.00 0.00 0.00 0.00 0.00 0.00 0.00 0.00 0.00 0.00 0.00 0.00 0.00 0.00 0.00 0.00 0.00 0.00 0.00 0.00 0.00 0.00 0.00 0.00 0.00 0.00 0.00 0.00 0.00 0.00 0.00 0.00 0.00 0.00 0.00 0.00 0.00 0.00 0.00 0.00 0.00 0.00
0.01 0.01 0.00 0.00 0.00 0.00 0.00 0.00 0.00 0.00 0.00 0.00 0.00 0.00 0.00 0.00 0.00 0.00 0.00 0.00 0.00 0.00 0.00 0.00 0.00 0.00 0.00 0.00 0.00 0.00 0.00 0.00 0.00 0.00 0.00 0.00 0.00 0.00 0.00 0.00 0.00 0.00 0.00 0.00 0.00 0.00 0.00
0.00 0.00 0.01 0.01 0.01 0.00 0.00 0.00 0.00 0.00 0.00 0.00 0.00 0.00 0.00 0.00 0.00 0.00 0.00 0.00 0.00 0.00 0.00 0.00 0.00 0.00 0.00 0.00 0.00 0.00 0.00 0.00 0.00 0.00 0.00 0.00 0.00 0.00 0.00 0.00 0.00 0.00 0.00 0.00 0.00 0.00 0.00
0.01 0.01 0.01 0.01 0.01 0.01 0.00 0.00 0.00 0.00 0.00 0.00 0.00 0.00 0.00 0.00 0.00 0.00 0.00 0.00 0.00 0.00 0.00 0.00 0.00 0.00 0.00 0.00 0.00 0.00 0.00 0.00 0.00 0.00 0.00 0.00 0.00 0.00 0.00 0.00 0.00 0.00 0.00 0.00 0.00 0.00 0.00
0.01 0.01 0.01 0.00 0.01 0.01 0.01 0.00 0.00 0.00 0.00 0.00 0.00 0.00 0.00 0.00 0.00 0.00 0.00 0.00 0.00 0.00 0.00 0.00 0.00 0.00 0.00 0.00 0.00 0.00 0.00 0.00 0.00 0.00 0.00 0.00 0.00 0.00 0.00 0.00 0.00 0.00 0.00 0.00 0.00 0.00 0.00
0.00 0.00 0.00 0.00 0.00 0.01 0.01 0.01 0.00 0.00 0.00 0.00 0.00 0.00 0.00 0.00 0.00 0.00 0.00 0.00 0.00 0.00 0.00 0.00 0.00 0.00 0.00 0.00 0.00 0.00 0.00 0.00 0.00 0.00 0.00 0.00 0.00 0.00 0.00 0.00 0.00 0.00 0.00 0.00 0.00 0.00 0.00
0.01 0.01 0.01 0.01 0.00 0.00 0.01 0.01 0.00 0.00 0.00 0.00 0.00 0.00 0.00 0.00 0.00 0.00 0.00 0.00 0.00 0.00 0.00 0.00 0.00 0.00 0.00 0.00 0.00 0.00 0.00 0.00 0.00 0.00 0.00 0.00 0.00 0.00 0.00 0.00 0.00 0.00 0.00 0.00 0.00 0.00 0.00
0.02 0.01 0.00 0.00 0.00 0.00 0.01 0.01 0.00 0.00 0.00 0.00 0.00 0.00 0.00 0.00 0.00 0.00 0.00 0.00 0.00 0.00 0.00 0.00 0.00 0.00 0.00 0.00 0.00 0.00 0.00 0.00 0.00 0.00 0.00 0.00 0.00 0.00 0.00 0.00 0.00 0.00 0.00 0.00 0.00 0.00 0.00
0.01 0.00 0.01 0.01 0.01 0.02 0.02 0.02 0.01 0.00 0.00 0.00 0.00 0.00 0.00 0.00 0.00 0.00 0.00 0.00 0.00 0.00 0.00 0.00 0.00 0.00 0.00 0.00 0.00 0.00 0.00 0.00 0.00 0.00 0.00 0.00 0.00 0.00 0.00 0.00 0.00 0.00 0.00 0.00 0.00 0.00 0.00
0.00 0.00 0.00 0.00 0.01 0.01 0.01 0.01 0.01 0.00 0.00 0.00 0.00 0.00 0.00 0.00 0.00 0.00 0.00 0.00 0.00 0.00 0.00 0.00 0.00 0.00 0.00 0.00 0.00 0.00 0.00 0.00 0.00 0.00 0.00 0.00 0.00 0.00 0.00 0.00 0.00 0.00 0.00 0.00 0.00 0.00 0.00
0.00 0.00 0.00 0.00 0.00 0.00 0.01 0.02 0.01 0.01 0.01 0.00 0.00 0.00 0.00 0.00 0.01 0.00 0.00 0.01 0.00 0.00 0.00 0.00 0.00 0.00 0.00 0.00 0.00 0.00 0.00 0.00 0.00 0.00 0.00 0.00 0.00 0.00 0.00 0.00 0.00 0.00 0.00 0.00 0.00 0.00 0.00
0.02 0.02 0.01 0.01 0.01 0.01 0.01 0.02 0.01 0.00 0.00 0.00 0.00 0.00 0.00 0.01 0.02 0.03 0.05 0.04 0.01 0.00 0.00 0.00 0.00 0.00 0.00 0.00 0.00 0.00 0.00 0.00 0.00 0.00 0.00 0.00 0.00 0.00 0.00 0.00 0.00 0.00 0.00 0.00 0.00 0.00 0.00
0.02 0.01 0.00 0.00 0.01 0.02 0.02 0.02 0.01 0.00 0.00 0.00 0.00 0.00 0.00 0.00 0.01 0.04 0.07 0.06 0.01 0.00 0.00 0.00 0.00 0.00 0.00 0.00 0.00 0.00 0.00 0.00 0.00 0.00 0.00 0.00 0.00 0.00 0.00 0.00 0.00 0.00 0.00 0.00 0.00 0.00 0.00
0.01 0.01 0.01 0.00 0.00 0.01 0.03 0.02 0.01 0.00 0.00 0.00 0.00 0.00 0.00 0.00 0.02 0.10 0.07 0.03 0.00 0.00 0.00 0.00 0.00 0.00 0.00 0.00 0.00 0.00 0.00 0.00 0.00 0.00 0.00 0.00 0.00 0.00 0.00 0.00 0.00 0.00 0.00 0.00 0.00 0.00 0.00
0.02 0.01 0.01 0.01 0.01 0.00 0.01 0.01 0.01 0.01 0.00 0.01 0.00 0.00 0.00 0.00 0.07 0.13 0.04 0.01 0.00 0.00 0.00 0.00 0.00 0.00 0.00 0.00 0.00 0.00 0.00 0.00 0.00 0.00 0.00 0.00 0.00 0.00 0.00 0.00 0.00 0.00 0.00 0.00 0.00 0.00 0.00
0.00 0.00 0.01 0.01 0.02 0.02 0.01 0.01 0.01 0.00 0.00 0.01 0.01 0.01 0.00 0.00 0.13 0.11 0.02 0.03 0.00 0.00 0.00 0.00 0.00 0.00 0.00 0.00 0.00 0.00 0.00 0.00 0.00 0.00 0.00 0.00 0.00 0.00 0.00 0.00 0.00 0.00 0.00 0.00 0.00 0.00 0.00
0.00 0.02 0.02 0.02 0.01 0.01 0.01 0.00 0.00 0.00 0.01 0.02 0.03 0.02 0.01 0.09 0.09 0.04 0.02 0.04 0.02 0.00 0.00 0.00 0.00 0.00 0.00 0.00 0.00 0.00 0.00 0.00 0.00 0.00 0.00 0.00 0.00 0.00 0.00 0.00 0.00 0.00 0.00 0.00 0.00 0.00 0.00
0.02 0.01 0.00 0.00 0.00 0.00 0.00 0.00 0.00 0.00 0.01 0.04 0.03 0.01 0.03 0.15 0.07 0.02 0.01 0.02 0.04 0.01 0.00 0.00 0.00 0.00 0.00 0.00 0.00 0.00 0.00 0.00 0.00 0.00 0.00 0.00 0.01 0.01 0.00 0.00 0.00 0.00 0.00 0.00 0.00 0.00 0.00
0.00 0.00 0.00 0.00 0.00 0.00 0.00 0.00 0.00 0.01 0.01 0.07 0.05 0.03 0.02 0.08 0.03 0.03 0.04 0.03 0.03 0.03 0.01 0.00 0.01 0.00 0.00 0.00 0.00 0.00 0.00 0.00 0.00 0.00 0.00 0.00 0.00 0.00 0.00 0.01 0.00 0.00 0.00 0.00 0.00 0.00 0.00
0.01 0.01 0.00 0.01 0.01 0.01 0.01 0.01 0.01 0.01 0.03 0.08 0.04 0.01 0.01 0.02 0.01 0.01 0.03 0.06 0.05 0.05 0.02 0.01 0.02 0.01 0.00 0.01 0.01 0.01 0.00 0.00 0.00 0.00 0.00 0.00 0.00 0.00 0.00 0.00 0.00 0.00 0.00 0.00 0.00 0.00 0.00
0.03 0.03 0.02 0.02 0.02 0.02 0.02 0.03 0.03 0.03 0.06 0.08 0.01 0.01 0.01 0.00 0.01 0.03 0.03 0.01 0.03 0.04 0.05 0.03 0.01 0.01 0.00 0.00 0.01 0.02 0.01 0.01 0.00 0.00 0.00 0.00 0.00 0.00 0.00 0.00 0.00 0.00 0.00 0.00 0.00 0.00 0.00
0.03 0.03 0.03 0.02 0.02 0.01 0.02 0.03 0.03 0.03 0.03 0.02 0.01 0.02 0.07 0.03 0.01 0.04 0.03 0.02 0.01 0.03 0.02 0.01 0.00 0.01 0.01 0.01 0.00 0.00 0.00 0.00 0.00 0.00 0.00 0.00 0.00 0.01 0.00 0.01 0.01 0.00 0.00 0.00 0.00 0.00 0.00
0.02 0.02 0.02 0.02 0.02 0.02 0.01 0.01 0.02 0.03 0.03 0.01 0.00 0.01 0.03 0.02 0.05 0.03 0.02 0.03 0.02 0.02 0.03 0.02 0.00 0.02 0.01 0.00 0.00 0.00 0.00 0.00 0.00 0.00 0.00 0.00 0.00 0.01 0.01 0.00 0.00 0.00 0.00 0.00 0.00 0.00 0.00
0.01 0.01 0.00 0.00 0.02 0.01 0.01 0.01 0.01 0.01 0.02 0.02 0.01 0.01 0.02 0.02 0.01 0.03 0.04 0.02 0.04 0.04 0.02 0.03 0.01 0.01 0.01 0.00 0.02 0.01 0.01 0.00 0.00 0.00 0.00 0.00 0.00 0.02 0.01 0.00 0.00 0.00 0.00 0.00 0.01 0.01 0.00
0.00 0.00 0.00 0.01 0.02 0.01 0.01 0.01 0.01 0.02 0.01 0.02 0.01 0.02 0.04 0.03 0.01 0.01 0.03 0.03 0.03 0.04 0.04 0.02 0.03 0.01 0.01 0.01 0.03 0.02 0.03 0.01 0.01 0.01 0.00 0.00 0.00 0.01 0.01 0.02 0.01 0.01 0.00 0.00 0.00 0.04 0.03
0.00 0.00 0.00 0.00 0.01 0.01 0.01 0.01 0.01 0.02 0.03 0.03 0.01 0.01 0.02 0.01 0.00 0.00 0.02 0.03 0.04 0.04 0.05 0.04 0.02 0.01 0.01 0.01 0.03 0.04 0.02 0.00 0.00 0.02 0.03 0.00 0.01 0.01 0.00 0.02 0.02 0.01 0.00 0.00 0.01 0.03 0.01
0.00 0.00 0.00 0.00 0.00 0.01 0.01 0.01 0.01 0.02 0.03 0.04 0.01 0.00 0.00 0.00 0.01 0.01 0.00 0.00 0.03 0.06 0.06 0.04 0.01 0.00 0.00 0.02 0.04 0.03 0.01 0.00 0.00 0.00 0.03 0.00 0.01 0.01 0.01 0.03 0.02 0.00 0.01 0.03 0.01 0.02 0.05
0.00 0.00 0.00 0.00 0.00 0.00 0.01 0.01 0.01 0.02 0.03 0.04 0.02 0.01 0.00 0.00 0.01 0.01 0.00 0.00 0.00 0.00 0.03 0.03 0.01 0.02 0.01 0.03 0.03 0.03 0.02 0.01 0.00 0.00 0.00 0.00 0.01 0.01 0.02 0.04 0.04 0.00 0.02 0.00 0.00 0.00 0.01
MSLP
1022.53 1022.42 1022.17 1022.05 1021.86 1021.95 1021.86 1021.74 1021.63 1021.57 1021.45 1021.21 1021.05 1020.90 1020.53 1020.11 1019.77 1019.43 1019.05 1018.97 1018.64 1018.31 1017.93 1017.51 1017.13 1016.90 1015.44 1012.29 1009.10 1008.09 1009.08 1009.17 1008.95 1008.59 1007.81 1006.88 1006.23 1005.41 1004.52 1003.89 1003.47 1002.88 1002.56 1002.49 1001.96 1001.93 1001.73
1022.38 1022.28 1021.90 1021.74 1021.74 1021.72 1021.63 1021.44 1021.49 1021.39 1021.20 1020.99 1020.73 1020.55 1020.37 1019.87 1019.54 1019.29 1018.87 1018.57 1018.22 1017.87 1017.39 1017.34 1017.09 1016.97 1015.20 1011.85 1007.87 1007.96 1008.31 1008.20 1007.88 1007.68 1007.16 1006.47 1005.79 1005.34 1004.46 1003.72 1003.41 1002.83 1002.40 1002.28 1002.05 1001.54 1001.39
1022.07 1022.16 1021.93 1021.70 1021.51 1021.36 1021.26 1021.27 1021.23 1021.19 1021.02 1020.81 1020.56 1020.29 1020.22 1019.84 1019.30 1019.02 1018.65 1018.20 1017.76 1017.39 1017.06 1016.78 1016.70 1016.36 1014.35 1010.27 1008.18 1008.17 1008.31 1007.95 1007.28 1007.05 1006.56 1006.22 1006.08 1005.76 1005.16 1004.49 1003.91 1003.57 1002.90 1002.29 1001.64 1001.26 1000.82
1021.69 1021.60 1021.78 1021.44 1021.24 1021.17 1021.12 1020.93 1020.92 1020.88 1020.92 1020.72 1020.37 1020.16 1019.91 1019.51 1019.13 1018.72 1018.24 1017.80 1017.14 1016.54 1016.30 1015.90 1016.07 1015.39 1012.19 1009.08 1008.58 1008.01 1008.13 1007.77 1007.75 1007.39 1007.16 1006.64 1006.58 1006.28 1005.80 1004.94 1004.23 1003.81 1003.18 1001.75 1000.77 999.89 999.55
1021.69 1021.27 1021.28 1021.29 1021.15 1021.02 1021.05 1020.85 1020.57 1020.61 1020.47 1020.59 1020.11 1019.91 1019.58 1019.24 1018.90 1018.48 1017.83 1017.09 1016.23 1015.66 1015.34 1015.31 1015.08 1014.14 1010.11 1008.88 1008.20 1007.58 1007.38 1007.04 1007.15 1007.51 1007.52 1007.69 1007.37 1006.36 1005.69 1005.16 1004.20 1003.31 1002.29 1001.03 999.84 999.07 999.58
1021.26 1021.05 1021.11 1021.03 1020.66 1020.66 1020.76 1020.48 1020.41 1020.24 1020.07 1020.37 1019.87 1019.77 1019.32 1019.04 1018.70 1018.21 1017.46 1016.27 1014.82 1015.19 1014.63 1013.91 1013.29 1013.16 1009.54 1007.58 1007.00 1006.95 1006.69 1006.70 1006.84 1007.12 1007.46 1007.57 1006.97 1005.70 1004.84 1003.98 1002.29 1002.15 1001.77 1000.74 999.52 998.71 998.00
1020.70 1020.69 1020.35 1020.47 1020.35 1020.35 1020.23 1020.15 1019.99 1020.01 1019.83 1019.96 1019.81 1019.56 1019.15 1018.85 1018.56 1018.19 1017.18 1014.70 1013.78 1013.41 1012.79 1011.25 1010.29 1009.52 1008.05 1007.45 1007.28 1006.65 1006.50 1006.77 1006.61 1006.71 1006.05 1005.97 1005.63 1003.77 1003.17 1003.05 1002.77 1002.26 1001.35 999.78 998.84 998.02 998.42
1020.53 1020.26 1020.01 1019.96 1019.95 1019.87 1020.04 1019.74 1019.56 1019.60 1019.48 1019.85 1019.48 1019.37 1018.98 1018.82 1018.51 1017.91 1017.07 1014.68 1014.14 1014.96 1012.61 1010.91 1009.54 1008.96 1008.25 1007.89 1007.18 1006.50 1006.04 1006.25 1005.90 1005.23 1004.95 1004.47 1003.51 1003.47 1003.07 1002.78 1002.78 1002.83 1001.54 1000.40 999.62 998.94 998.63
1020.21 1019.95 1019.67 1019.44 1019.46 1019.44 1019.52 1019.32 1019.19 1019.28 1019.18 1019.44 1019.31 1019.12 1019.11 1018.80 1018.25 1017.12 1015.39 1014.76 1014.53 1014.78 1012.64 1008.66 1007.53 1007.07 1007.36 1007.61 1006.51 1005.90 1005.81 1005.57 1004.80 1004.77 1003.77 1003.33 1002.23 1002.62 1002.93 1002.86 1003.14 1002.13 1001.57 1000.88 1000.04 999.13 998.37
1019.61 1019.65 1019.37 1019.25 1019.03 1019.01 1019.14 1018.87 1018.78 1018.93 1019.02 1018.93 1019.09 1018.78 1019.17 1018.65 1018.01 1015.29 1014.67 1014.89 1014.88 1015.06 1012.02 1006.94 1006.61 1006.27 1007.06 1007.11 1006.13 1005.60 1005.48 1005.65 1004.90 1004.16 1003.83 1002.73 1002.52 1002.41 1002.41 1002.09 1002.43 1001.80 1001.60 1001.20 1000.63 999.82 998.46
1019.09 1019.08 1019.00 1018.82 1018.67 1018.74 1018.76 1018.57 1018.57 1018.79 1018.64 1018.95 1018.63 1018.59 1018.63 1018.75 1017.26 1015.54 1015.37 1015.14 1014.99 1014.80 1010.07 1005.79 1005.90 1005.99 1006.08 1006.30 1005.33 1005.43 1005.85 1005.60 1004.77 1004.10 1004.12 1002.38 1002.28 1002.36 1002.32 1001.59 1001.96 1001.50 1001.59 1001.53 1000.78 999.68 999.11
1018.67 1018.64 1018.51 1018.41 1018.31 1018.33 1018.34 1018.19 1018.27 1018.30 1018.37 1018.42 1018.35 1018.43 1018.35 1017.26 1016.88 1015.72 1015.15 1015.16 1014.81 1013.28 1007.63 1005.24 1005.16 1005.49 1005.57 1005.42 1005.16 1005.46 1005.87 1005.83 1005.02 1004.93 1003.89 1002.86 1002.01 1002.16 1001.54 1001.99 1002.01 1002.24 1001.85 1001.45 1000.67 999.95 998.43
1018.21 1018.25 1018.10 1017.93 1017.93 1017.91 1017.88 1017.77 1017.85 1017.90 1017.99 1018.02 1018.06 1018.22 1018.11 1016.93 1015.91 1015.59 1015.49 1015.06 1013.62 1009.67 1006.07 1004.39 1004.31 1004.62 1004.16 1004.13 1004.57 1004.89 1005.26 1005.21 1004.28 1004.66 1003.77 1003.24 1002.21 1002.05 1001.92 1001.61 1001.94 1002.32 1001.69 1000.75 999.89 998.99 997.34
1017.83 1017.75 1017.61 1017.44 1017.39 1017.35 1017.41 1017.33 1017.45 1017.58 1017.66 1017.68 1017.65 1017.74 1016.86 1016.20 1015.80 1015.55 1015.55 1014.65 1011.38 1006.78 1005.60 1005.04 1004.92 1004.19 1003.74 1003.84 1003.73 1004.05 1004.28 1003.85 1003.85 1003.26 1002.36 1001.86 1001.06 1000.91 1000.64 1000.69 1000.55 1000.93 1001.03 1000.21 998.85 997.58 996.20
1017.01 1017.03 1016.95 1016.89 1016.80 1016.78 1016.92 1017.09 1017.07 1017.13 1017.14 1017.26 1017.33 1016.45 1015.73 1015.38 1015.42 1015.77 1015.71 1013.43 1009.62 1007.86 1006.01 1005.55 1004.84 1003.99 1003.39 1003.91 1003.93 1003.69 1003.50 1002.63 1002.81 1003.01 1002.24 1000.71 999.86 999.12 1000.05 1000.42 1000.63 1000.04 1000.10 1000.23 999.26 998.22 997.41
1016.62 1016.51 1016.28 1016.21 1016.19 1016.28 1016.40 1016.48 1016.59 1016.83 1016.85 1017.09 1016.45 1015.41 1014.58 1014.18 1014.94 1015.72 1015.13 1012.82 1009.78 1008.03 1007.59 1006.58 1005.00 1004.04 1003.11 1003.80 1003.78 1003.35 1003.06 1003.79 1003.50 1003.51 1003.00 1001.93 1000.97 999.88 999.74 999.91 1000.17 1000.07 999.49 999.72 999.42 998.49 997.22
1015.89 1015.75 1015.70 1015.64 1015.59 1015.67 1015.80 1015.91 1016.13 1016.43 1016.74 1016.84 1016.49 1015.46 1013.12 1013.40 1014.80 1015.37 1014.06 1012.30 1010.86 1009.51 1008.16 1007.92 1005.76 1005.01 1004.43 1004.60 1004.37 1003.80 1003.45 1004.23 1004.21 1003.82 1003.24 1002.73 1002.05 1000.32 999.93 999.57 998.92 999.58 999.32 999.05 999.03 998.59 997.26
1015.18 1015.08 1015.02 1015.04 1014.99 1015.03 1015.15 1015.36 1015.62 1015.97 1016.43 1016.82 1016.05 1014.55 1012.20 1013.27 1014.55 1014.15 1013.34 1011.88 1011.73 1009.75 1008.60 1008.29 1007.95 1006.90 1006.23 1005.98 1005.41 1004.97 1004.37 1004.33 1004.86 1004.57 1003.84 1003.78 1002.75 1001.22 1000.08 999.17 998.95 998.63 998.66 998.95 998.68 998.27 997.10
1014.36 1014.24 1014.15 1014.15 1014.17 1014.24 1014.39 1014.65 1014.97 1015.36 1015.87 1015.50 1015.37 1013.90 1012.77 1013.46 1013.00 1012.75 1011.89 1012.11 1011.52 1010.45 1009.33 1008.77 1008.07 1007.76 1007.46 1006.87 1006.35 1005.67 1005.40 1005.36 1005.75 1005.23 1005.35 1005.13 1003.61 1002.11 1000.70 1000.21 999.59 999.14 998.91 998.65 998.69 998.62 997.34
1013.33 1013.19 1013.18 1013.19 1013.21 1013.32 1013.53 1013.79 1014.19 1014.62 1015.09 1015.69 1014.89 1013.53 1012.34 1012.93 1012.20 1011.91 1011.00 1010.47 1010.52 1010.58 1010.21 1008.83 1008.28 1007.95 1007.75 1007.36 1006.98 1006.54 1005.98 1005.92 1006.23 1006.16 1006.53 1006.37 1004.79 1003.52 1001.94 1001.70 1000.65 999.49 999.08 999.12 998.86 998.12 997.53
1012.18 1012.05 1011.97 1011.99 1012.09 1012.27 1012.52 1012.84 1013.29 1013.78 1014.23 1015.33 1014.46 1012.90 1010.96 1011.29 1011.31 1010.85 1010.67 1010.37 1009.77 1009.44 1009.91 1008.88 1008.98 1008.46 1007.70 1007.47 1007.18 1006.87 1006.75 1006.43 1006.34 1006.18 1006.34 1006.15 1005.21 1004.38 1003.34 1002.07 1001.59 1000.67 1000.09 999.74 999.12 998.63 997.64
1010.82 1010.56 1010.51 1010.63 1010.78 1011.00 1011.24 1011.56 1012.04 1012.69 1013.37 1014.32 1013.55 1012.78 1011.38 1010.37 1009.73 1009.98 1009.70 1009.50 1009.17 1009.56 1009.47 1008.97 1008.63 1008.02 1007.83 1007.50 1007.31 1007.36 1007.75 1007.39 1007.18 1006.80 1006.51 1006.52 1005.65 1005.19 1003.94 1002.92 1001.94 1000.76 1000.16 999.52 998.78 998.47 997.66
1009.55 1009.32 1009.19 1009.28 1009.47 1009.70 1009.96 1010.22 1010.62 1011.28 1012.44 1012.44 1012.66 1012.15 1011.69 1010.07 1009.61 1009.10 1008.51 1008.61 1008.22 1008.35 1008.08 1008.13 1008.10 1007.86 1007.77 1008.02 1007.89 1007.89 1007.77 1007.86 1007.89 1007.66 1007.21 1007.07 1006.65 1006.20 1004.80 1003.32 1001.84 1000.41 999.66 999.19 998.99 998.43 997.72
1008.43 1008.20 1008.05 1008.13 1008.32 1008.56 1008.85 1009.11 1009.46 1010.01 1010.77 1011.65 1011.77 1011.92 1011.59 1009.62 1008.99 1008.25 1007.80 1007.60 1007.58 1007.43 1007.39 1007.66 1007.35 1007.64 1008.25 1008.83 1008.90 1008.40 1008.15 1007.89 1007.68 1007.34 1007.48 1007.38 1006.97 1006.94 1005.50 1004.42 1002.28 1000.16 999.98 1000.43 1000.10 999.72 998.47
1007.24 1007.13 1007.07 1007.14 1007.29 1007.51 1007.87 1008.21 1008.58 1009.04 1009.62 1010.37 1010.79 1010.89 1010.38 1009.14 1008.37 1007.49 1007.31 1006.98 1006.85 1007.12 1007.40 1007.54 1007.25 1008.33 1009.67 1009.63 1009.57 1008.13 1007.17 1006.87 1005.88 1005.80 1006.10 1006.94 1006.92 1006.80 1005.74 1004.04 1002.17 1000.74 999.84 1000.32 1000.25 999.72 998.83
1006.07 1006.02 1006.06 1006.18 1006.34 1006.63 1006.96 1007.34 1007.78 1008.28 1008.85 1009.38 1009.73 1010.09 1009.73 1008.87 1006.71 1006.70 1006.36 1006.34 1006.57 1006.92 1007.12 1007.08 1007.94 1009.32 1010.01 1010.31 1009.88 1007.79 1005.68 1004.54 1003.45 1003.08 1004.12 1005.33 1006.19 1006.43 1005.47 1004.16 1001.78 1000.50 1000.13 1000.92 1000.86 1000.25 1000.27
1004.68 1004.72 1004.87 1005.04 1005.22 1005.54 1005.94 1006.37 1006.81 1007.34 1008.01 1008.66 1009.20 1009.71 1009.51 1008.45 1006.67 1006.13 1005.67 1005.87 1006.09 1006.32 1006.50 1007.77 1009.17 1009.92 1010.14 1010.17 1009.28 1007.35 1005.26 1003.93 1003.20 1002.54 1003.23 1004.25 1005.32 1005.62 1005.26 1004.01 1002.56 1001.05 1000.44 1000.90 1001.41 1002.63 1001.68
1003.08 1003.16 1003.40 1003.73 1004.03 1004.31 1004.70 1005.22 1005.73 1006.37 1007.05 1007.93 1008.18 1009.00 1009.40 1008.44 1006.58 1005.63 1005.11 1005.27 1005.29 1005.74 1006.72 1007.81 1009.19 1009.77 1010.23 1009.57 1008.23 1006.43 1004.83 1003.70 1003.17 1002.47 1003.17 1003.76 1004.71 1004.93 1004.88 1003.75 1002.81 1001.50 1000.75 1001.74 1003.04 1002.85 1002.26
1001.91 1001.81 1001.90 1002.13 1002.52 1002.87 1003.35 1003.93 1004.56 1005.32 1006.08 1007.05 1007.67 1008.23 1009.28 1009.16 1007.83 1006.48 1005.39 1005.09 1004.72 1005.14 1006.44 1007.53 1007.32 1008.32 1008.30 1008.07 1006.75 1005.77 1004.67 1003.88 1003.13 1002.48 1001.99 1003.37 1003.89 1003.86 1003.61 1003.32 1003.64 1002.45 1002.74 1003.23 1003.33 1003.01 1002.43
Thickness
5545 5544 5546 5548 5549 5548 5549 5550 5551 5552 5553 5555 5556 5558 5561 5565 5569 5573 5577 5577 5581 5585 5589 5593 5597 5599 5614 5636 5655 5675 5669 5672 5674 5676 5676 5679 5678 5684 5682 5692 5700 5696 5708 5710 5717 5714 5715
5530 5529 5532 5534 5535 5534 5535 5538 5537 5537 5540 5543 5546 5548 5550 5554 5559 5562 5565 5568 5573 5577 5582 5583 5585 5587 5604 5616 5663 5664 5664 5668 5671 5671 5672 5677 5677 5683 5683 5688 5687 5699 5705 5704 5709 5711 5711
5517 5515 5517 5519 5520 5521 5522 5522 5523 5524 5526 5529 5533 5537 5537 5542 5548 5550 5554 5559 5564 5569 5572 5576 5577 5580 5596 5622 5650 5652 5653 5657 5666 5667 5664 5673 5673 5668 5675 5669 5686 5686 5680 5694 5702 5705 5704
5505 5505 5501 5505 5507 5507 5508 5511 5511 5512 5512 5516 5521 5524 5527 5531 5536 5540 5545 5549 5556 5563 5566 5571 5569 5576 5601 5628 5635 5641 5643 5647 5652 5655 5654 5662 5664 5657 5656 5672 5669 5667 5672 5671 5702 5712 5716
5489 5492 5490 5490 5492 5494 5494 5496 5500 5500 5502 5501 5509 5513 5518 5521 5525 5529 5535 5541 5551 5558 5562 5564 5568 5572 5602 5621 5624 5633 5639 5637 5639 5640 5641 5642 5642 5644 5651 5643 5647 5659 5652 5672 5693 5716 5702
5476 5479 5477 5476 5480 5481 5480 5485 5486 5489 5493 5490 5498 5500 5506 5509 5514 5518 5525 5536 5548 5549 5557 5563 5569 5565 5600 5611 5623 5627 5633 5631 5625 5624 5619 5619 5623 5631 5637 5641 5639 5650 5656 5672 5680 5706 5710
5466 5465 5469 5468 5468 5468 5471 5474 5476 5476 5481 5481 5484 5489 5495 5499 5503 5505 5516 5537 5551 5556 5561 5573 5582 5585 5596 5607 5611 5614 5619 5614 5615 5612 5609 5619 5610 5623 5640 5645 5653 5654 5662 5674 5692 5711 5687
5452 5454 5457 5457 5457 5459 5456 5463 5467 5468 5471 5469 5475 5478 5485 5488 5491 5497 5505 5527 5532 5523 5545 5561 5574 5579 5585 5591 5589 5599 5612 5601 5603 5605 5615 5613 5611 5631 5640 5643 5637 5634 5646 5656 5678 5691 5680
5438 5441 5443 5446 5446 5447 5448 5453 5456 5457 5461 5460 5464 5468 5471 5476 5480 5492 5509 5515 5518 5516 5533 5571 5580 5584 5580 5578 5583 5591 5599 5599 5604 5599 5611 5607 5627 5632 5623 5621 5615 5632 5635 5646 5657 5678 5684
5423 5425 5428 5432 5436 5437 5437 5443 5447 5447 5447 5451 5452 5459 5457 5465 5475 5497 5502 5504 5505 5504 5530 5577 5574 5577 5571 5570 5573 5590 5593 5589 5592 5595 5602 5608 5622 5616 5618 5618 5622 5617 5642 5643 5645 5651 5644
5406 5410 5413 5418 5422 5424 5427 5432 5434 5434 5438 5437 5444 5449 5452 5453 5467 5482 5485 5490 5493 5495 5537 5568 5569 5577 5571 5564 5575 5575 5581 5579 5581 5589 5587 5601 5606 5605 5603 5619 5621 5623 5633 5632 5641 5647 5645
5389 5393 5397 5403 5409 5412 5415 5419 5422 5424 5425 5429 5433 5436 5440 5450 5455 5464 5472 5474 5481 5494 5530 5558 5566 5560 5559 5562 5566 5567 5563 5569 5580 5572 5583 5593 5611 5607 5616 5615 5616 5619 5619 5627 5637 5639 5627
5370 5377 5383 5389 5394 5400 5403 5407 5410 5412 5413 5416 5419 5422 5426 5435 5448 5449 5453 5460 5481 5511 5550 5554 5557 5561 5566 5567 5562 5563 5556 5556 5565 5551 5560 5575 5588 5603 5608 5602 5609 5603 5607 5605 5614 5620 5629
5356 5364 5370 5378 5384 5389 5393 5397 5400 5401 5403 5404 5408 5410 5417 5424 5428 5433 5436 5442 5471 5534 5539 5540 5544 5555 5557 5562 5565 5562 5560 5564 5570 5575 5579 5573 5580 5597 5615 5610 5609 5608 5607 5605 5612 5638 5656
5350 5356 5362 5369 5376 5381 5384 5387 5390 5392 5393 5394 5396 5404 5410 5410 5411 5412 5410 5426 5487 5504 5523 5523 5538 5542 5552 5553 5556 5559 5561 5574 5573 5575 5573 5586 5593 5613 5609 5611 5610 5614 5602 5626 5623 5637 5625
5345 5350 5356 5362 5368 5373 5377 5380 5382 5381 5383 5383 5390 5398 5401 5403 5400 5395 5392 5417 5469 5487 5491 5507 5523 5538 5550 5545 5549 5555 5559 5556 5559 5565 5574 5577 5574 5601 5604 5609 5609 5604 5629 5604 5615 5600 5607
5344 5349 5352 5356 5362 5366 5370 5373 5374 5373 5373 5376 5379 5379 5402 5400 5390 5380 5391 5417 5446 5461 5475 5482 5509 5517 5531 5527 5536 5544 5550 5546 5551 5555 5567 5570 5571 5588 5598 5596 5602 5600 5604 5616 5620 5619 5615
5344 5347 5350 5354 5358 5362 5365 5367 5367 5368 5367 5366 5372 5377 5405 5393 5377 5383 5387 5424 5421 5449 5466 5473 5479 5494 5504 5509 5517 5525 5532 5540 5542 5548 5550 5557 5564 5569 5585 5607 5614 5615 5612 5612 5602 5608 5631
5345 5347 5351 5354 5357 5360 5363 5364 5365 5365 5363 5369 5367 5383 5393 5386 5388 5395 5414 5405 5417 5433 5451 5460 5471 5480 5489 5495 5501 5515 5521 5528 5530 5535 5531 5540 5551 5557 5575 5587 5599 5597 5607 5615 5615 5613 5610
5346 5349 5351 5354 5357 5360 5361 5362 5363 5363 5361 5358 5364 5374 5393 5382 5396 5396 5415 5426 5424 5428 5434 5456 5464 5474 5479 5485 5496 5500 5511 5518 5520 5522 5519 5524 5539 5546 5554 5553 5575 5583 5595 5599 5602 5601 5605
5349 5352 5355 5357 5358 5360 5361 5363 5363 5362 5360 5353 5360 5376 5405 5384 5392 5405 5412 5415 5425 5437 5432 5451 5448 5459 5472 5476 5485 5492 5501 5506 5513 5518 5519 5522 5525 5539 5550 5564 5565 5571 5576 5583 5588 5596 5595
5354 5357 5360 5361 5361 5362 5364 5366 5366 5364 5359 5352 5358 5368 5392 5406 5413 5405 5411 5417 5426 5420 5426 5439 5449 5461 5467 5473 5481 5478 5479 5488 5493 5507 5511 5512 5518 5525 5533 5551 5557 5560 5572 5583 5593 5594 5600
5358 5360 5362 5363 5365 5367 5368 5371 5371 5369 5359 5360 5364 5376 5379 5400 5401 5407 5418 5420 5432 5438 5445 5448 5451 5457 5462 5465 5472 5476 5480 5484 5486 5488 5495 5498 5502 5503 5514 5539 5549 5551 5570 5581 5584 5591 5597
5360 5363 5365 5367 5368 5369 5371 5372 5372 5371 5366 5360 5363 5369 5370 5393 5399 5409 5422 5428 5431 5440 5445 5448 5457 5456 5456 5455 5458 5466 5471 5475 5480 5487 5489 5489 5496 5494 5505 5517 5520 5561 5569 5562 5562 5570 5587
5364 5366 5368 5369 5370 5371 5370 5370 5370 5369 5367 5363 5364 5366 5374 5389 5405 5412 5417 5427 5435 5438 5439 5444 5456 5449 5438 5441 5437 5459 5476 5479 5492 5497 5495 5489 5491 5482 5498 5518 5539 5551 5565 5557 5559 5563 5580
5367 5368 5368 5368 5368 5368 5367 5366 5365 5364 5362 5362 5363 5367 5375 5385 5413 5418 5421 5428 5426 5430 5438 5447 5442 5431 5432 5423 5430 5459 5488 5504 5513 5517 5512 5502 5495 5492 5502 5510 5530 5549 5559 5555 5557 5558 5559
5371 5370 5369 5368 5368 5368 5367 5366 5366 5365 5362 5361 5360 5362 5369 5382 5411 5416 5419 5421 5431 5435 5442 5433 5417 5416 5426 5424 5434 5461 5487 5505 5505 5513 5506 5502 5494 5489 5497 5508 5525 5546 5555 5554 5544 5537 5542
5376 5376 5374 5372 5371 5371 5371 5370 5369 5367 5365 5362 5365 5359 5361 5376 5408 5418 5425 5423 5431 5433 5425 5423 5417 5414 5410 5425 5444 5472 5485 5499 5503 5515 5501 5501 5492 5490 5496 5506 5510 5539 5548 5536 5526 5531 5532
5379 5379 5378 5376 5375 5375 5374 5373 5371 5369 5367 5363 5362 5361 5355 5361 5387 5401 5415 5420 5430 5434 5427 5419 5441 5424 5437 5440 5464 5474 5482 5490 5498 5500 5519 5500 5501 5507 5515 5517 5509 5525 5522 5521 5522 5527 5534